Date String (YYYY-MM-DD hh:mm:ss) UTC,Instrument flags,Ambient pressure (hPa),Sample flow (lpm),Bypass flow (lpm),Sample temperature (°C),Ambient temperature (°C),ASC tube jacket temperature (°C),LED temperature (°C),Box temperature (°C),Sample RH (%),Span deviation,Mass concentration (μg/m³),Mass concentration (μg/m³),Mass concentration (μg/m³)
DateTimeUTC,F1_M11,P_M11,Q1_M11,Q2_M11,T1_M11,T2_M11,T3_M11,T4_M11,T5_M11,U1_M11,ZSPAN_M11,X2_M11,X0_M11,X1_M11
2021-12-30 05:00:00,,0814.5,5.00,0.00,22.6,23.1,00.0,31.5,24.5,06.4,0000.0,0004.27,0017.25,0002.61
2021-12-30 05:01:00,,0814.6,4.99,0.00,22.7,23.2,00.0,31.5,24.6,06.4,0000.0,0004.22,0017.02,0002.59
2021-12-30 05:02:00,,0814.5,5.01,0.00,22.7,23.0,00.0,31.6,24.6,06.4,0000.0,0004.21,0016.89,0002.56
2021-12-30 05:03:00,,0814.4,5.00,0.00,22.7,22.7,00.0,31.6,24.5,06.4,0000.0,0004.24,0015.80,0002.55
2021-12-30 05:04:00,,0814.4,5.00,0.00,22.7,22.5,00.0,31.6,24.4,06.4,0000.0,0004.27,0015.60,0002.54
2021-12-30 05:05:00,,0814.4,5.01,0.00,22.7,22.3,00.0,31.6,24.4,06.4,0000.0,0004.36,0016.36,0002.53
2021-12-30 05:06:00,,0814.4,4.99,0.00,22.6,22.2,00.0,31.6,24.3,06.4,0000.0,0004.31,0016.07,0002.51
2021-12-30 05:07:00,,0814.3,5.00,0.00,22.6,22.1,00.0,31.6,24.2,06.4,0000.0,0004.28,0015.88,0002.50
2021-12-30 05:08:00,,0814.4,5.01,0.00,22.6,22.0,00.0,31.6,24.1,06.4,0000.0,0004.33,0016.60,0002.50
2021-12-30 05:09:00,,0814.4,5.00,0.00,22.5,21.9,00.0,31.5,24.1,06.4,0000.0,0004.39,0017.63,0002.49
2021-12-30 05:10:00,,0814.5,5.00,0.00,22.5,21.8,00.0,31.5,24.0,06.5,0000.0,0004.41,0018.15,0002.50
2021-12-30 05:11:00,,0814.4,5.00,0.00,22.4,21.7,00.0,31.5,24.0,06.5,0000.0,0004.38,0018.30,0002.50
2021-12-30 05:12:00,,0814.3,5.00,0.00,22.4,21.6,00.0,31.5,24.0,06.5,0000.0,0004.40,0018.81,0002.48
2021-12-30 05:13:00,,0814.3,4.99,0.00,22.4,21.5,00.0,31.5,23.9,06.5,0000.0,0004.36,0018.51,0002.48
2021-12-30 05:14:00,,0814.3,5.00,0.00,22.4,21.5,00.0,31.5,23.9,06.5,0000.0,0004.35,0018.42,0002.46
2021-12-30 05:15:00,,0814.3,4.99,0.00,22.4,21.9,00.0,31.5,24.0,06.5,0000.0,0004.34,0017.82,0002.46
2021-12-30 05:16:00,,0814.3,5.00,0.00,22.5,22.7,00.0,31.5,24.3,06.5,0000.0,0004.25,0017.80,0002.46
2021-12-30 05:17:00,,0814.5,5.01,0.00,22.6,23.2,00.0,31.6,24.5,06.4,0000.0,0004.28,0017.65,0002.45
2021-12-30 05:18:00,,0814.4,5.00,0.00,22.7,23.0,00.0,31.6,24.5,06.4,0000.0,0004.34,0018.35,0002.46
2021-12-30 05:19:00,,0814.4,4.99,0.00,22.7,22.8,00.0,31.6,24.5,06.4,0000.0,0004.34,0017.63,0002.50
2021-12-30 05:20:00,,0814.4,5.01,0.00,22.6,22.6,00.0,31.6,24.3,06.5,0000.0,0004.33,0016.29,0002.51
2021-12-30 05:21:00,,0814.3,5.01,0.00,22.6,22.4,00.0,31.6,24.3,06.5,0000.0,0004.30,0016.13,0002.51
2021-12-30 05:22:00,,0814.4,4.99,0.00,22.6,22.2,00.0,31.6,24.2,06.5,0000.0,0004.35,0016.10,0002.52
2021-12-30 05:23:00,,0814.4,5.00,0.00,22.5,22.1,00.0,31.6,24.2,06.5,0000.0,0004.30,0014.72,0002.52
2021-12-30 05:24:00,,0814.3,4.99,0.00,22.5,21.9,00.0,31.5,24.1,06.5,0000.0,0004.33,0015.05,0002.53
2021-12-30 05:25:00,,0814.4,4.99,0.00,22.5,21.8,00.0,31.5,24.0,06.5,0000.0,0004.31,0014.82,0002.55
2021-12-30 05:26:00,,0814.3,5.01,0.00,22.4,21.7,00.0,31.5,24.0,06.5,0000.0,0004.37,0015.12,0002.57
2021-12-30 05:27:00,,0814.4,5.00,0.00,22.4,21.6,00.0,31.5,23.9,06.6,0000.0,0004.39,0016.13,0002.57
2021-12-30 05:28:00,,0814.3,5.00,0.00,22.3,21.6,00.0,31.5,23.9,06.6,0000.0,0004.33,0015.96,0002.57
2021-12-30 05:29:00,,0814.4,5.01,0.00,22.3,21.5,00.0,31.4,23.9,06.6,0000.0,0004.32,0015.30,0002.60
2021-12-30 05:30:00,,0814.2,4.99,0.00,22.3,21.5,00.0,31.4,23.8,06.6,0000.0,0004.24,0014.36,0002.58
2021-12-30 05:31:00,,0814.5,5.01,0.00,22.3,21.9,00.0,31.4,23.9,06.6,0000.0,0004.21,0014.69,0002.59
2021-12-30 05:32:00,,0814.3,5.00,0.00,22.4,22.7,00.0,31.5,24.2,06.6,0000.0,0004.21,0015.53,0002.59
2021-12-30 05:33:00,,0814.3,5.01,0.00,22.6,23.2,00.0,31.5,24.4,06.6,0000.0,0004.15,0015.65,0002.60
2021-12-30 05:34:00,,0814.5,5.00,0.00,22.6,23.0,00.0,31.5,24.4,06.5,0000.0,0004.17,0016.00,0002.64
2021-12-30 05:35:00,,0814.2,5.00,0.00,22.6,22.8,00.0,31.5,24.4,06.5,0000.0,0004.19,0015.98,0002.66
2021-12-30 05:36:00,,0814.2,4.99,0.00,22.6,22.6,00.0,31.5,24.3,06.5,0000.0,0004.25,0016.67,0002.65
2021-12-30 05:37:00,,0814.3,5.00,0.00,22.6,22.4,00.0,31.5,24.3,06.5,0000.0,0004.20,0016.33,0002.67
2021-12-30 05:38:00,,0814.0,5.01,0.00,22.6,22.2,00.0,31.5,24.2,06.5,0000.0,0004.16,0015.18,0002.70
2021-12-30 05:39:00,,0814.0,5.00,0.00,22.6,22.0,00.0,31.5,24.2,06.5,0000.0,0004.22,0015.25,0002.73
2021-12-30 05:40:00,,0814.0,4.99,0.00,22.5,21.9,00.0,31.5,24.2,06.5,0000.0,0004.22,0015.77,0002.74
2021-12-30 05:41:00,,0814.1,5.00,0.00,22.5,21.9,00.0,31.5,24.1,06.5,0000.0,0004.24,0016.12,0002.74
2021-12-30 05:42:00,,0814.0,5.01,0.00,22.5,21.8,00.0,31.5,24.1,06.5,0000.0,0004.22,0015.75,0002.74
2021-12-30 05:43:00,,0814.0,5.01,0.00,22.5,21.7,00.0,31.5,24.1,06.6,0000.0,0004.20,0015.41,0002.76
2021-12-30 05:44:00,,0814.0,4.99,0.00,22.4,21.7,00.0,31.5,24.0,06.6,0000.0,0004.24,0015.47,0002.76
2021-12-30 05:45:00,,0814.0,5.02,0.00,22.4,21.6,00.0,31.5,24.0,06.6,0000.0,0004.22,0015.15,0002.75
2021-12-30 05:46:00,,0814.1,4.99,0.00,22.4,21.6,00.0,31.4,23.9,06.6,0000.0,0004.16,0014.70,0002.71
2021-12-30 05:47:00,,0814.1,5.00,0.00,22.4,22.0,00.0,31.5,24.1,06.6,0000.0,0004.14,0015.95,0002.70
2021-12-30 05:48:00,,0814.0,5.02,0.00,22.5,22.8,00.0,31.5,24.4,06.5,0000.0,0004.17,0016.56,0002.68
2021-12-30 05:49:00,,0814.0,4.99,0.00,22.7,23.3,00.0,31.5,24.6,06.5,0000.0,0004.17,0018.15,0002.66
2021-12-30 05:50:00,,0814.0,5.01,0.00,22.7,23.2,00.0,31.6,24.6,06.5,0000.0,0004.11,0017.00,0002.63
2021-12-30 05:51:00,,0814.1,5.00,0.00,22.8,22.9,00.0,31.6,24.6,06.5,0000.0,0004.12,0016.63,0002.61
2021-12-30 05:52:00,,0814.3,4.99,0.00,22.7,22.7,00.0,31.6,24.5,06.4,0000.0,0004.10,0016.87,0002.60
2021-12-30 05:53:00,,0814.2,5.02,0.00,22.7,22.5,00.0,31.6,24.4,06.4,0000.0,0004.13,0017.03,0002.59
2021-12-30 05:54:00,,0814.3,4.99,0.00,22.7,22.4,00.0,31.6,24.4,06.4,0000.0,0004.14,0017.43,0002.58
2021-12-30 05:55:00,,0814.2,5.00,0.00,22.7,22.2,00.0,31.6,24.3,06.4,0000.0,0004.18,0017.58,0002.57
2021-12-30 05:56:00,,0814.1,5.01,0.00,22.7,22.1,00.0,31.6,24.3,06.4,0000.0,0004.23,0017.67,0002.55
2021-12-30 05:57:00,,0814.1,5.01,0.00,22.7,22.0,00.0,31.6,24.3,06.4,0000.0,0004.24,0017.52,0002.54
2021-12-30 05:58:00,,0814.0,5.01,0.00,22.6,21.9,00.0,31.6,24.2,06.4,0000.0,0004.25,0016.37,0002.55
2021-12-30 05:59:00,,0814.0,5.01,0.00,22.6,21.9,00.0,31.6,24.2,06.5,0000.0,0004.20,0016.49,0002.54
